Regional Weather Roundup
Issued by NWS New Orleans/Baton Rouge, LA

Home | Current Version | Previous Version | Text Only | Print | Product List | Glossary On
Versions: 1 2 3 4 5 6 7 8 9 10 11 12 13 14 15 16 17 18 19 20 21 22 23 24 25 26 27 28 29 30 31 32 33 34 35 36 37 38 39 40 41 42 43 44 45 46 47 48 49 50
000
ASUS44 KLIX 200513
RWRLIX
NEW ORLEANS REGIONAL WEATHER ROUNDUP
NATIONAL WEATHER SERVICE NEW ORLEANS LA
1200 AM CDT FRI OCT 20 2017

NOTE: "FAIR" INDICATES FEW OR NO CLOUDS BELOW 12,000 FEET WITH NO
      SIGNIFICANT WEATHER AND/OR OBSTRUCTIONS TO VISIBILITY.
      SKY/WX - SKY CONDITION AND SIGNIFICANT WEATHER.
      TMP - AIR TEMPERATURE.     DP    - DEWPOINT TEMPERATURE.
      RH  - RELATIVE HUMIDITY.   PRES  - PRESSURE.
      HI  - HEAT INDEX.          WCI   - WIND CHILL INDEX.

*  THESE STATIONS ARE NOT NWS OR FAA STATIONS AND ARE NOT UNDER
   NWS QUALITY CONTROL.

LAZ038-040-048-061>063-065>067-069-200600-
SOUTHEAST LOUISIANA

CITY           SKY/WX    TMP DP  RH WIND       PRES   REMARKS
N.O. INTL ARPT   N/A     69  66  90 E7        30.16F
N.O. LAKEFRONT   N/A     73  68  84 SE8       30.16F
N.O. DOWNTOWN*   N/A     74  64  71 VRB5      30.17F
RESERVE*         N/A     67  65  91 CALM      30.16F
SLIDELL          N/A     63  60  90 CALM      30.17F
BATON ROUGE      N/A     66  64  93 E3        30.16F
BOOTHVILLE       N/A     79  64  60 E7        30.16F
BELLE CHASSE   NOT AVBL
BOGALUSA*        N/A     60  56  86 CALM      30.20S
GALLIANO*        N/A     72  66  83 E3        30.15F
NEW ROADS*       N/A     67  65  90 CALM      30.16S
GONZALES*        N/A     63  63  97 CALM      30.15F
HAMMOND*         N/A     64  63  94 E3        30.17F
HOUMA*           N/A    N/A N/A N/A E5        30.15S
PORT FOURCHON* NOT AVBL

$$

MSZ070-080>082-200600-
SOUTHERN MISSISSIPPI

CITY           SKY/WX    TMP DP  RH WIND       PRES   REMARKS
MCCOMB           N/A     65  60  84 CALM      30.19F
GULFPORT         N/A     67  61  81 NE3       30.17S
BILOXI           N/A     67  60  78 NE7       30.17F
PASCAGOULA       N/A     62  58  86 CALM      30.18S

$$

COASTAL OBSERVATIONS
LAKE AND NEARSHORE STATIONS

STATION/POSITION TIME  TEMP    WIND        PRES    WAVE
                       AIR SEA DIR/SP/G            HT/PER
                 (UTC) (F)     (DEG/KT/KT) (MB)    (FT/S)
PASCAGOULA       0448   68      40/  8/ 11 1021.3
WAVELAND YACHT   0448   69 74   70/  9/ 10 1021.8
GRAND ISLE       0448   77 77  110/ 11/ 15 1021.1
NEW CANAL        0448   71 76   CALM  /  2 1021.2
SHELL BEACH      0448   74 76   90/  9/ 10 1021.4

OFFSHORE STATIONS

STATION/POSITION TIME  TEMP    WIND        PRES    WAVE
                       AIR SEA DIR/SP/G            HT/PER
                 (UTC) (F)     (DEG/KT/KT) (MB)    (FT/S)
64 S DAUPHIN ISL 0450   80 82   90/ 16/ 19 1020.6    4/ 7

$$




USA.gov is the U.S. government's official web portal to all federal, state and local government web resources and services.